Location: Bo?a Wola
(50.4192°N, 19.7966°E)
Time: 21:13:03
(UTC+00:00)

Cosmos 1603 - Visible Passes

Search period start: 13 September 2024 00:00
Search period end: 23 September 2024 00:00
Orbit: 831 x 857 km, 71.0° (Epoch: 13 September)

Date Brightness Start Highest point End Pass type
(mag) Time Alt. Az. Time Alt. Az. Time Alt. Az.
13 Sep 6.2 00:32:09 10° NW 00:34:35 13° NNW 00:37:00 10° N visible
13 Sep 5.5 20:53:48 20° NE 20:53:48 20° NE 20:55:36 10° NE visible
13 Sep 5.1 22:35:40 34° NNW 22:35:40 34° NNW 22:39:42 10° NNE visible
14 Sep 6.2 00:17:47 10° NW 00:20:17 13° NNW 00:22:48 10° N visible
14 Sep 5.6 20:39:41 19° NE 20:39:41 19° NE 20:41:20 10° NE visible
14 Sep 5.1 22:21:31 34° NNW 22:21:31 34° NNW 22:25:28 10° NNE visible
15 Sep 6.2 00:03:25 10° NW 00:06:00 13° NNW 00:08:36 10° N visible
15 Sep 6.2 03:36:19 10° N 03:39:48 16° NNE 03:43:16 10° ENE visible
15 Sep 5.6 20:25:31 19° NE 20:25:31 19° NE 20:27:05 10° NE visible
15 Sep 5.1 22:07:22 34° NNW 22:07:22 34° NNW 22:11:14 10° NNE visible
15 Sep 6.2 23:49:12 10° NW 23:51:43 13° NNW 23:54:23 10° N visible
16 Sep 6.2 03:22:06 10° N 03:25:31 16° NNE 03:28:55 10° ENE visible
16 Sep 5.6 20:11:19 18° NE 20:11:19 18° NE 20:12:49 10° NE visible
16 Sep 5.1 21:53:09 34° NNW 21:53:09 34° NNW 21:57:00 10° NNE visible
16 Sep 6.2 23:35:00 11° NW 23:37:26 13° NNW 23:40:10 10° N visible
17 Sep 6.3 03:07:54 10° N 03:11:14 16° NNE 03:14:34 10° ENE visible
17 Sep 5.5 19:57:04 18° NE 19:57:04 18° NE 19:58:34 10° NE visible
17 Sep 5.1 21:38:53 35° NNW 21:38:53 35° NNW 21:42:46 10° NNE visible
17 Sep 6.3 23:20:45 11° NW 23:23:09 14° NNW 23:25:58 10° N visible
18 Sep 6.3 02:53:41 10° N 02:56:57 15° NNE 03:00:13 10° ENE visible
18 Sep 5.5 19:42:45 18° NE 19:42:45 18° NE 19:44:18 10° NE visible
18 Sep 5.0 21:24:35 36° NNW 21:24:35 36° NNW 21:28:32 10° NNE visible
18 Sep 6.3 23:06:24 11° NW 23:08:52 14° NNW 23:11:45 10° N visible
19 Sep 6.3 02:39:28 10° N 02:42:41 15° NNE 02:45:52 10° ENE visible
19 Sep 5.4 19:28:20 19° NE 19:28:20 19° NE 19:30:02 10° NE visible
19 Sep 4.9 21:10:10 38° NNW 21:10:10 38° NNW 21:14:18 10° NNE visible
19 Sep 6.3 22:51:58 11° NW 22:54:35 14° NNW 22:57:32 10° N visible
20 Sep 6.4 02:25:15 10° N 02:28:23 15° NNE 02:31:31 10° ENE visible
20 Sep 5.2 19:13:47 21° NE 19:13:47 21° NE 19:15:47 10° NE visible
20 Sep 4.8 20:55:35 42° NNW 20:55:35 42° NNW 21:00:05 10° NNE visible
20 Sep 6.3 22:37:23 10° WNW 22:40:17 14° NNW 22:43:20 10° N visible
21 Sep 6.4 02:11:02 10° N 02:14:06 15° NNE 02:17:10 10° ENE visible
21 Sep 5.0 18:58:58 24° ENE 18:58:58 24° ENE 19:01:30 10° NE visible
21 Sep 4.6 20:40:45 46° NW 20:40:45 46° NW 20:45:51 10° NNE visible
21 Sep 6.3 22:22:55 10° WNW 22:26:01 15° NNW 22:29:07 10° N visible
22 Sep 6.4 01:56:50 10° N 01:59:49 14° NNE 02:02:48 10° ENE visible
22 Sep 4.9 03:40:04 10° NNW 03:45:27 45° NE 03:50:49 10° SE visible
22 Sep 4.5 18:43:34 31° ENE 18:43:34 31° ENE 18:47:15 10° NE visible
22 Sep 4.5 20:25:17 44° W 20:26:09 48° NW 20:31:37 10° NNE visible
22 Sep 6.3 22:08:34 10° WNW 22:11:43 15° NNW 22:14:54 10° N visible
